Alliance, NE

5:09 PM MDT on May 26, 2017 (GMT -0600)
Alliance Municipal

Weather History for KAIA - December, 2012

Change the Weather History Date:

Wednesday, December 19, 2012

  Actual Average Record
Temperature  
Mean Temperature 15 °F 23 °F  
Max Temperature 31 °F 38 °F 63 °F (1917)
Min Temperature -1 °F 8 °F -17 °F (1989)
Degree Days  
Heating Degree Days 50 42  
Month to date heating degree days 652 778  
Since 1 July heating degree days 2215 2577  
Cooling Degree Days 0 0  
Month to date cooling degree days 0 0  
Year to date cooling degree days 959 564  
Moisture  
Dew Point 15 °F    
Average Humidity 64    
Maximum Humidity 88    
Minimum Humidity 39    
Precipitation  
Precipitation T in 0.00 in 0.20 in (1902)
Month to date precipitation T 0.24  
Year to date precipitation 6.77 15.58  
Sea Level Pressure  
Sea Level Pressure 29.94 in    
Wind  
Wind Speed 13 mph (North)    
Max Wind Speed 24 mph    
Max Gust Speed 31 mph    
Visibility 5 miles    
Events Fog , Snow    
T = Trace of Precipitation, MM = Missing Value Source: NWS Daily Summary

Daily Weather History Graph

Daily Weather History Graph

Search for Another Location

Airport or City:

Trip Planner

Search our weather history database for the weather conditions in past years. The results will help you decide how hot, cold, wet, or windy it might be!

Date:

Astronomy

Dec. 19, 2012 Rise Set
Actual Time 7:15 AM MST 4:22 PM MST
Civil Twilight 6:43 AM MST 4:53 PM MST
Nautical Twilight 6:08 AM MST 5:29 PM MST
Astronomical Twilight 5:34 AM MST 6:03 PM MST
Moon 11:18 AM MST (12/19) 11:59 PM MST (12/19)
Length of Visible Light 10h 10m
Length of Day
9h 06m
Waxing Crescent, 45% of the Moon is Illuminated
Dec 19
Waxing Crescent
Dec 19
First Quarter
Dec 28
Full
Jan 4
Last Quarter
Jan 11
New

Hourly Weather History & Observations

Time (MST) Temp. Windchill Dew Point Humidity Pressure Visibility Wind Dir Wind Speed Gust Speed Precip Events Conditions
12:53 AM 30.0 °F 23.2 °F 8.1 °F 40% 29.78 in 10.0 mi North 6.9 mph - N/A   Overcast
1:53 AM 28.0 °F 20.0 °F 6.1 °F 39% 29.80 in 10.0 mi North 8.1 mph - N/A   Overcast
2:53 AM 27.0 °F 17.3 °F 8.1 °F 45% 29.80 in 10.0 mi NNE 10.4 mph - N/A   Overcast
3:53 AM 26.1 °F 17.6 °F 9.0 °F 49% 29.82 in 10.0 mi North 8.1 mph - N/A   Overcast
4:53 AM 26.6 °F 15.2 °F 10.4 °F 51% 29.77 in 10.0 mi North 13.8 mph - N/A   Overcast
5:53 AM 26.1 °F 13.6 °F 18.0 °F 71% 29.85 in 10.0 mi North 16.1 mph - N/A   Overcast
6:53 AM 24.1 °F 9.8 °F 19.0 °F 81% 29.89 in 6.0 mi NNW 19.6 mph 31.1 mph 0.00 in Snow Light Snow
7:18 AM 23.0 °F 8.7 °F 19.4 °F 86% 29.81 in 2.0 mi North 18.4 mph 27.6 mph 0.00 in Snow Light Snow
7:20 AM 23.0 °F 9.2 °F 19.4 °F 86% 29.81 in 1.8 mi North 17.3 mph 27.6 mph 0.00 in Snow Light Snow
7:25 AM 23.0 °F 9.2 °F 19.4 °F 86% 29.81 in 1.0 mi North 17.3 mph - 0.00 in Snow Light Snow
7:32 AM 23.0 °F 9.2 °F 21.2 °F 93% 29.82 in 0.5 mi North 17.3 mph 21.9 mph 0.00 in Fog , Snow Snow
7:47 AM 23.0 °F 10.1 °F 21.2 °F 93% 29.82 in - North 15.0 mph - 0.00 in Snow Snow
7:53 AM 24.1 °F 11.5 °F 21.0 °F 88% 29.92 in 0.5 mi North 15.0 mph - 0.00 in Fog , Snow Snow
8:03 AM 24.8 °F 14.0 °F 21.2 °F 86% 29.85 in 0.8 mi North 11.5 mph - 0.00 in Snow Light Snow
8:10 AM 24.8 °F 12.4 °F 21.2 °F 86% 29.86 in 0.8 mi North 15.0 mph - 0.00 in Snow Light Snow
8:48 AM 24.8 °F 13.4 °F 21.2 °F 86% 29.86 in 0.5 mi North 12.7 mph - 0.00 in Fog , Snow Snow
8:53 AM 24.1 °F 12.5 °F 21.0 °F 88% 29.96 in 0.5 mi North 12.7 mph - 0.00 in Fog , Snow Snow
9:33 AM 24.8 °F 11.9 °F 21.2 °F 86% 29.87 in 1.0 mi North 16.1 mph - 0.00 in Snow Light Snow
9:53 AM 24.1 °F 12.0 °F 21.0 °F 88% 29.98 in 1.0 mi North 13.8 mph - 0.00 in Snow Light Snow
10:05 AM 24.8 °F 11.1 °F 19.4 °F 80% 29.89 in 0.8 mi North 18.4 mph 27.6 mph 0.00 in Snow Light Snow
10:18 AM 24.8 °F 11.5 °F 19.4 °F 80% 29.89 in 1.2 mi North 17.3 mph - 0.00 in Snow Light Snow
10:43 AM 24.8 °F 11.5 °F 19.4 °F 80% 29.88 in 1.0 mi North 17.3 mph - 0.00 in Snow Light Snow
10:53 AM 24.1 °F 10.6 °F 19.9 °F 84% 29.96 in 0.8 mi North 17.3 mph 27.6 mph 0.00 in Snow Light Snow
11:08 AM 24.8 °F 12.9 °F 19.4 °F 80% 29.87 in 1.0 mi North 13.8 mph 27.6 mph 0.00 in Snow Light Snow
11:16 AM 24.8 °F 11.9 °F 19.4 °F 80% 29.87 in 1.2 mi North 16.1 mph - 0.00 in Snow Light Snow
11:24 AM 24.8 °F 11.5 °F 19.4 °F 80% 29.87 in 2.0 mi North 17.3 mph 24.2 mph 0.00 in Snow Light Snow
11:42 AM 24.8 °F 11.9 °F 19.4 °F 80% 29.87 in 1.2 mi North 16.1 mph - 0.00 in Snow Light Snow
11:50 AM 24.8 °F 13.4 °F 19.4 °F 80% 29.87 in 1.5 mi North 12.7 mph - 0.00 in Snow Light Snow
11:53 AM 24.1 °F 12.5 °F 21.0 °F 88% 29.95 in 1.8 mi North 12.7 mph - 0.00 in Snow Light Snow
11:59 AM 24.8 °F 13.4 °F 19.4 °F 80% 29.86 in 3.0 mi North 12.7 mph - 0.00 in Snow Light Snow
12:53 PM 26.1 °F 15.0 °F 19.0 °F 75% 29.96 in 10.0 mi North 12.7 mph - 0.00 in   Overcast
1:53 PM 25.0 °F 14.8 °F 14.0 °F 63% 29.99 in 10.0 mi North 10.4 mph - N/A   Overcast
2:53 PM 25.0 °F 13.1 °F 12.9 °F 60% 30.02 in 10.0 mi NNW 13.8 mph - 0.00 in   Overcast
3:53 PM 24.1 °F 13.1 °F 12.9 °F 62% 30.05 in 10.0 mi North 11.5 mph - 0.00 in   Scattered Clouds
4:53 PM 21.0 °F 9.9 °F 10.9 °F 65% 30.08 in 10.0 mi NNW 10.4 mph - N/A   Partly Cloudy
5:53 PM 21.9 °F 9.2 °F 12.9 °F 68% 30.12 in 10.0 mi NNW 13.8 mph - N/A   Mostly Cloudy
6:53 PM 19.9 °F 6.7 °F 10.9 °F 68% 30.15 in 10.0 mi NNW 13.8 mph - N/A   Clear
7:53 PM 19.0 °F 5.6 °F 9.0 °F 65% 30.16 in 10.0 mi NNW 13.8 mph - N/A   Clear
8:53 PM 3.9 °F -12.2 °F -0.9 °F 80% 30.22 in 10.0 mi West 11.5 mph - N/A   Clear
9:53 PM -0.9 °F -17.4 °F -6.0 °F 79% 30.24 in 10.0 mi West 10.4 mph - N/A   Clear
10:53 PM 1.9 °F -13.8 °F -2.9 °F 80% 30.25 in 10.0 mi West 10.4 mph - N/A   Clear
11:53 PM -0.9 °F -19.9 °F -6.0 °F 79% 30.26 in 10.0 mi West 13.8 mph - N/A   Clear